Dewpoint
49 45 43 42 40 40 39 37 37 38 38 40 36 31 31 32 32 31 30 29 29 30 30 29 28 27 24 23 23 21 19 18 15 15 18 18 18 18 18 20 21 21 22
46 44 41 41 40 38 36 35 38 43 40 34 34 30 30 31 31 30 29 29 29 29 30 27 23 23 22 22 21 19 18 17 16 15 17 18 18 18 19 20 20 22 22
44 42 40 40 39 37 37 40 43 37 35 33 30 28 29 30 31 30 29 29 30 30 29 23 21 22 21 21 20 18 17 17 18 17 18 18 18 18 19 21 21 22 22
41 40 41 40 40 40 42 39 36 34 30 29 29 29 30 31 31 31 29 30 31 30 25 24 22 22 21 19 17 17 16 16 18 18 17 16 16 19 20 19 19 19 16
41 42 43 42 40 38 35 33 31 30 29 29 29 30 30 32 31 30 30 29 27 26 24 24 23 22 23 21 19 18 17 18 18 17 16 14 16 17 18 19 17 16 17
44 43 40 36 34 33 33 33 32 30 30 30 30 30 31 30 29 30 30 28 26 24 23 23 22 24 25 24 25 22 20 18 16 16 14 14 16 17 16 16 17 18 16
39 36 36 35 34 32 30 29 29 29 34 33 30 30 29 30 30 30 30 27 25 24 23 22 22 22 22 22 24 22 20 20 19 16 14 16 17 16 16 18 19 20 21
34 33 32 31 30 30 30 33 36 37 33 30 28 29 30 29 30 31 31 28 24 23 23 23 23 25 22 21 19 18 18 18 17 15 16 17 18 18 19 21 22 22 21
31 31 31 30 31 33 35 37 36 31 29 28 28 28 28 28 29 31 31 29 25 23 23 24 28 24 23 24 20 19 19 18 16 16 18 19 19 18 18 19 18 19 16
30 30 31 32 36 38 37 33 30 29 28 27 26 27 27 27 29 31 32 29 26 25 24 26 26 25 22 23 21 19 19 18 15 14 17 18 18 18 18 18 19 18 17
34 37 40 38 34 31 29 28 28 28 27 27 27 27 27 27 28 30 31 29 27 26 25 25 25 24 24 23 23 21 20 19 17 18 19 19 18 18 17 17 19 19 18
34 33 31 31 30 29 28 28 28 27 26 26 26 26 26 27 28 29 30 31 28 26 26 26 25 25 26 24 24 24 24 23 22 21 19 18 16 16 15 17 19 19 20
29 29 29 28 28 29 28 27 27 26 26 26 26 26 25 26 26 28 30 31 31 29 28 27 26 26 28 25 25 26 25 23 21 19 18 17 15 14 17 18 18 18 19
26 26 26 26 26 26 27 27 27 27 27 27 26 25 25 25 25 26 26 27 30 31 30 29 27 27 26 24 24 25 24 21 20 19 17 15 14 15 15 17 17 17 17
25 26 26 26 26 26 26 26 26 27 28 27 27 27 26 24 24 26 26 25 26 27 28 28 25 24 23 23 23 22 22 20 20 18 17 15 14 15 15 16 17 17 14
28 28 28 27 27 27 27 27 28 28 28 29 29 29 28 27 27 28 30 29 30 29 27 25 23 23 23 22 21 21 20 19 20 19 17 15 14 14 14 16 16 15 14
24 26 27 26 26 27 27 27 26 27 28 28 29 30 30 30 31 32 32 32 30 30 27 25 23 23 22 21 21 20 19 19 19 20 17 14 14 13 14 15 14 14 13
23 23 23 23 24 24 24 23 23 22 21 21 22 26 29 30 30 31 32 31 29 29 28 25 22 22 22 21 21 20 20 20 19 19 16 15 14 12 14 14 13 13 13
18 18 18 19 20 21 21 21 21 21 21 21 21 22 24 28 29 31 31 29 28 27 26 26 25 24 22 22 22 21 20 19 18 17 16 14 13 12 14 13 12 14 13
17 18 19 19 20 19 18 18 19 21 22 22 22 22 23 25 26 25 25 25 26 27 27 26 26 25 25 23 22 21 20 19 18 17 15 15 14 12 14 13 10 13 14
18 17 17 17 17 17 17 17 19 19 17 17 18 23 25 26 26 25 26 27 25 25 28 26 25 25 26 25 23 22 21 20 19 18 17 16 14 13 14 12 11 13 13
14 15 13 12 14 13 13 15 16 15 14 15 14 16 17 17 18 21 22 21 21 25 28 28 27 26 26 25 24 23 22 22 21 20 19 18 16 14 13 11 12 12 11
12 11 8 9 10 10 10 10 12 10 11 11 12 13 13 14 13 12 13 15 15 16 17 18 24 28 27 26 26 26 24 23 22 22 20 18 16 14 11 11 12 10 10
9 9 6 6 7 7 7 7 8 7 7 7 8 9 10 11 10 9 10 10 10 11 14 15 16 18 26 27 27 27 27 26 25 23 22 18 17 14 11 11 11 9 9
6 5 5 4 4 4 4 4 4 4 4 5 5 6 7 8 8 7 8 7 7 8 10 12 14 14 15 17 27 28 27 27 26 24 22 19 17 15 13 12 10 9 8
5 3 3 3 2 1 0 2 1 1 2 3 4 4 5 6 6 5 5 5 4 6 7 9 11 13 14 17 20 29 28 27 26 23 22 20 17 15 14 12 10 9 9
Wind_Speed
21 19 20 19 19 18 18 19 20 20 12 12 11 13 12 13 11 8 8 7 4 3 3 4 6 5 5 5 4 4 5 4 9 7 5 6 7 11 14 12 13 14 13
20 21 23 22 19 22 22 23 21 12 12 12 11 11 8 8 10 10 9 7 7 7 8 7 7 5 7 7 7 7 6 7 7 15 7 7 10 12 13 14 14 13 13
19 19 19 20 19 18 20 20 14 16 14 13 15 9 7 7 9 12 10 8 9 10 10 11 9 6 8 9 9 8 8 7 7 8 12 8 8 9 12 10 13 14 13
17 19 19 18 17 18 13 14 15 14 13 9 8 6 6 9 10 12 10 10 10 10 10 9 9 8 11 10 10 11 9 9 8 11 13 14 9 10 10 12 17 13 18
19 18 15 14 13 14 16 14 14 11 10 10 5 7 12 11 9 11 11 11 10 11 10 10 11 9 10 12 11 12 9 8 8 12 13 11 11 12 11 13 16 18 18
17 14 13 14 15 15 15 12 11 8 3 4 10 14 10 8 9 13 12 11 11 12 14 11 8 9 11 12 12 10 9 7 10 10 11 11 11 11 11 11 14 16 13
18 16 16 15 14 14 14 13 8 1 7 12 9 7 9 10 12 14 15 12 12 13 13 10 9 8 8 8 9 7 7 9 10 11 12 10 10 10 12 16 15 17 17
18 18 19 20 17 12 9 3 6 8 10 8 8 9 9 11 13 14 14 13 13 13 12 11 10 10 11 11 10 9 10 10 11 9 9 10 11 12 11 14 16 17 14
20 19 17 15 11 5 3 6 8 7 9 9 8 10 12 14 14 15 13 13 14 16 14 13 12 13 13 12 11 11 11 12 8 9 8 10 13 14 15 12 13 14 18
17 14 10 4 1 3 6 8 8 7 10 10 14 13 13 14 14 15 15 14 15 16 14 14 16 14 13 14 14 13 13 13 8 7 8 9 11 12 14 10 11 13 14
8 5 3 2 2 3 4 5 8 11 11 15 16 16 14 15 18 18 17 14 16 15 14 14 14 16 15 16 17 14 16 9 9 9 10 9 10 10 10 10 11 12 13
3 2 2 1 4 7 9 10 10 11 14 15 15 17 17 17 16 17 19 21 18 16 16 15 14 16 16 19 18 17 16 13 12 13 11 13 12 12 10 10 12 12 12
4 4 5 7 8 8 10 12 11 12 15 17 16 18 18 15 14 17 19 20 22 19 16 17 18 17 18 18 21 19 14 12 13 13 14 14 10 8 9 9 10 12 13
5 6 7 9 11 11 10 11 14 16 17 17 18 18 19 18 17 16 15 16 18 18 17 17 15 15 15 14 13 13 13 12 13 14 13 9 6 5 9 8 9 12 13
9 11 13 13 15 16 15 16 16 16 17 19 18 18 19 21 20 17 17 16 16 16 14 11 11 12 13 13 14 15 14 12 13 12 11 11 9 8 9 8 7 10 10
13 14 14 14 15 14 15 19 12 18 23 25 27 24 22 23 26 21 18 21 22 19 10 13 15 14 15 13 14 14 14 15 14 13 12 12 10 9 9 8 7 8 11
15 13 13 14 15 16 16 16 22 23 18 23 25 26 28 29 29 27 23 23 22 14 16 15 17 15 16 15 14 14 15 15 12 12 13 14 10 9 8 7 9 8 11
14 15 13 13 14 15 16 17 18 20 23 26 22 22 24 27 26 25 22 19 15 13 15 16 18 15 15 15 14 15 14 14 13 13 13 13 11 10 8 7 8 7 9
12 13 14 13 13 15 16 18 18 19 20 22 24 24 22 25 25 24 19 14 10 13 17 17 17 17 16 15 15 14 15 15 14 12 14 15 13 11 10 8 7 7 6
11 13 14 13 14 15 17 18 21 20 19 23 23 23 23 19 19 12 9 11 13 14 14 17 16 15 16 16 15 14 14 14 14 14 15 15 14 13 12 9 7 5 6
11 12 15 14 14 15 16 18 17 17 18 21 26 26 28 24 19 9 6 9 12 13 13 13 13 15 15 15 14 14 14 14 14 15 14 15 14 14 13 9 8 5 5
12 11 13 13 13 14 16 16 17 17 18 19 21 22 27 22 21 16 13 13 15 15 12 14 13 14 15 15 15 15 15 15 14 14 15 15 15 15 12 10 8 4 3
11 11 13 12 13 15 14 15 15 17 17 18 18 19 20 18 18 20 18 17 17 17 16 16 15 10 11 12 13 14 15 16 16 15 16 15 16 16 14 12 9 6 5
12 11 12 12 12 13 13 14 14 16 16 17 17 17 17 17 16 18 18 17 17 17 17 16 15 17 14 12 12 13 14 13 13 16 17 16 17 16 14 11 10 8 5
11 11 12 12 12 13 14 14 14 15 14 15 16 17 17 17 14 17 16 17 17 18 19 19 16 18 19 21 13 14 15 17 15 15 15 16 18 18 16 14 12 8 5
8 11 11 11 12 13 13 13 15 15 15 15 15 15 16 17 15 16 16 18 19 19 19 19 20 20 26 19 19 16 16 17 17 18 16 16 17 16 15 15 14 10 8
Wind_Direction
179 170 160 150 144 140 132 126 131 142 159 185 187 185 191 186 185 186 197 198 200 224 226 236 257 230 221 237 216 207 220 219 269 292 262 279 291 295 306 304 306 299 295
171 166 163 152 141 133 135 143 150 164 188 186 194 183 181 189 196 210 226 214 218 230 230 225 226 210 235 241 226 235 237 239 247 285 288 286 283 298 299 312 310 306 298
162 149 141 139 137 145 149 156 170 177 177 176 185 177 194 208 217 226 230 238 237 239 227 214 230 245 262 256 238 248 252 250 245 269 292 288 289 299 311 308 299 300 295
145 144 143 147 143 155 165 170 169 162 163 159 198 216 209 225 230 228 231 243 249 240 222 226 238 246 264 238 237 246 241 247 261 276 288 290 294 307 298 308 313 304 303
142 142 147 154 154 151 149 156 136 147 165 193 212 236 238 231 231 233 232 237 234 228 227 235 249 255 239 244 238 239 227 245 264 279 281 290 303 309 309 309 299 303 303
136 133 129 128 131 136 145 142 127 138 171 269 248 245 251 248 255 242 233 229 226 231 242 245 255 269 269 254 225 221 205 232 263 275 280 289 290 292 303 301 299 305 314
119 117 119 116 111 102 98 85 77 203 247 262 274 281 272 264 265 257 237 226 230 238 241 244 258 263 250 227 221 215 229 248 249 257 272 278 291 297 300 303 299 294 292
103 102 100 102 100 102 102 131 240 273 282 296 287 286 278 271 269 258 237 229 235 241 236 234 234 263 248 242 232 236 247 257 265 257 252 274 278 285 279 290 297 300 296
93 98 106 113 114 141 250 286 278 266 266 260 260 284 278 276 271 248 232 230 239 245 238 232 236 244 255 237 220 236 256 271 267 259 267 287 298 308 312 313 311 311 307
104 113 110 96 89 278 262 253 258 258 263 275 285 277 268 270 265 250 232 228 241 247 244 241 242 239 243 223 219 233 256 273 267 270 285 292 299 297 304 296 294 299 301
99 66 2 303 263 247 248 268 289 286 285 282 281 278 274 271 270 254 240 223 238 245 242 248 239 236 232 227 227 227 241 252 258 257 269 279 287 289 288 287 286 282 285
70 56 39 350 317 303 294 293 290 288 286 287 289 287 280 278 265 257 243 229 232 236 243 242 238 227 230 236 235 240 247 247 247 259 272 282 283 287 287 289 291 288 272
38 360 324 313 303 297 292 292 292 291 286 284 282 281 282 279 272 257 251 246 240 233 237 237 234 227 229 234 236 243 253 259 258 261 269 273 270 266 290 301 301 303 297
341 320 311 306 304 299 292 286 286 286 285 281 277 274 276 279 274 267 261 259 254 247 240 240 233 225 221 224 240 247 246 253 253 254 261 260 260 272 297 306 313 316 314
346 339 335 329 321 312 304 295 290 276 266 276 272 266 271 276 269 252 254 260 253 246 234 226 226 231 226 230 238 243 248 256 249 243 247 247 252 276 290 303 310 318 319
17 5 354 348 340 330 321 317 297 284 289 280 273 270 273 256 267 262 260 254 252 245 231 229 229 226 230 230 234 238 242 253 249 242 241 234 240 262 281 299 313 319 322
12 0 354 350 342 334 327 320 316 316 296 293 288 281 274 268 269 263 262 263 257 247 229 236 228 222 228 229 230 230 243 247 240 234 230 224 227 246 259 288 307 319 325
9 0 354 340 331 325 321 314 309 307 306 307 305 299 291 282 281 268 266 271 257 235 238 238 230 225 226 228 229 229 233 239 234 234 224 215 218 228 243 269 292 307 319
357 347 342 331 328 328 328 322 313 309 304 303 306 303 299 287 277 267 263 260 266 252 250 242 231 228 222 221 223 223 224 231 225 218 214 210 215 216 234 250 268 294 315
355 347 346 339 337 340 338 337 333 313 322 317 302 295 298 301 286 259 270 265 265 261 257 235 234 227 224 215 216 218 226 228 225 219 216 211 213 211 226 235 245 275 301
356 353 355 352 354 344 339 330 326 340 336 348 353 345 323 285 275 268 272 270 288 282 267 236 238 236 228 218 213 210 215 221 217 214 209 210 205 214 220 216 234 243 269
1 356 357 348 345 344 337 342 344 355 351 350 349 351 355 6 2 1 21 11 359 345 291 256 248 236 226 218 211 210 212 214 213 208 207 202 201 212 203 205 212 225 249
2 9 356 350 348 345 347 344 353 348 346 345 346 349 354 358 2 357 353 358 354 347 345 340 330 263 227 220 214 211 211 213 210 199 200 198 196 199 193 198 199 205 218
3 6 359 352 348 347 344 341 347 344 345 341 342 346 348 344 356 351 346 348 345 340 338 334 330 322 314 232 227 220 219 217 200 196 189 185 188 189 189 188 189 190 194
9 1 355 354 348 346 339 338 342 337 339 339 338 341 340 339 348 348 343 343 340 340 331 329 327 324 320 316 274 225 222 219 201 187 180 174 176 181 185 185 180 179 179
13 7 0 358 355 350 342 337 338 333 335 334 332 335 334 332 342 339 338 341 336 330 328 324 322 319 322 298 294 257 236 224 200 180 169 165 165 169 175 179 176 175 171